Location: Austin
(30.3000°N, 97.7500°W)
Time: 04:04:49
(UTC-06:00)

Cosmos 1174 - Pass Details

Date: 20 November 2023
Orbit: 362 x 1110 km, 66.1° (Epoch: 04 December)

Event Time Altitude Azimuth Distance (km) Brightness Sun altitude
Rises 19:08:44 0° 193° (SSW) 2,466 7.5 -20.7°
Reaches altitude 10° 19:10:41 10° 188° (S) 1,681 6.5 -21.1°
Enters shadow 19:13:29 44° 152° (SSE) 771 4.4 -21.7°
